Date String (YYYY-MM-DD hh:mm:ss) UTC,Instrument flags,Ambient pressure (hPa),Sample flow (lpm),Bypass flow (lpm),Sample temperature (°C),Ambient temperature (°C),ASC tube jacket temperature (°C),LED temperature (°C),Box temperature (°C),Sample RH (%),Span deviation,Mass concentration (μg/m³),Mass concentration (μg/m³),Mass concentration (μg/m³)
DateTimeUTC,F1_M11,P_M11,Q1_M11,Q2_M11,T1_M11,T2_M11,T3_M11,T4_M11,T5_M11,U1_M11,ZSPAN_M11,X2_M11,X0_M11,X1_M11
2023-01-13 04:00:00,,0833.4,5.00,0.00,23.5,21.4,00.0,32.6,25.1,14.3,-000.5,0018.09,0027.43,0017.26
2023-01-13 04:01:00,,0833.3,5.00,0.00,23.5,21.4,00.0,32.5,25.1,14.3,-000.4,0018.03,0027.68,0017.22
2023-01-13 04:02:00,,0833.3,5.00,0.00,23.5,21.3,00.0,32.5,25.0,14.3,-000.2,0017.99,0028.42,0017.18
2023-01-13 04:03:00,,0833.3,5.00,0.00,23.4,21.2,00.0,32.5,25.0,14.3,-000.3,0017.98,0028.67,0017.15
2023-01-13 04:04:00,,0833.2,5.02,0.00,23.4,21.2,00.0,32.4,25.0,14.4,-000.4,0017.96,0028.30,0017.10
2023-01-13 04:05:00,,0833.2,5.00,0.00,23.4,21.2,00.0,32.4,25.0,14.4,-000.4,0017.94,0028.22,0017.04
2023-01-13 04:06:00,,0833.1,4.99,0.00,23.3,21.2,00.0,32.4,25.0,14.5,-000.2,0017.96,0028.49,0017.04
2023-01-13 04:07:00,,0833.1,5.01,0.00,23.3,21.2,00.0,32.4,24.9,14.5,-000.1,0017.96,0028.10,0017.04
2023-01-13 04:08:00,,0833.1,5.01,0.00,23.3,21.2,00.0,32.3,24.9,14.5,-000.1,0017.95,0028.72,0017.03
2023-01-13 04:09:00,,0833.2,5.00,0.00,23.3,21.2,00.0,32.3,24.9,14.5,-000.0,0017.97,0028.92,0017.03
2023-01-13 04:10:00,,0833.3,5.00,0.00,23.3,21.2,00.0,32.3,24.9,14.5,-000.1,0017.95,0029.07,0017.00
2023-01-13 04:11:00,,0833.3,5.00,0.00,23.2,21.2,00.0,32.3,24.9,14.5,-000.1,0017.87,0028.97,0016.93
2023-01-13 04:12:00,,0833.3,5.00,0.00,23.2,21.1,00.0,32.2,24.8,14.5,-000.1,0017.87,0028.64,0016.92
2023-01-13 04:13:00,,0833.4,5.00,0.00,23.2,21.1,00.0,32.2,24.8,14.6,-000.1,0017.90,0028.22,0016.91
2023-01-13 04:14:00,,0833.4,5.00,0.00,23.1,21.1,00.0,32.2,24.8,14.6,-000.1,0017.92,0028.44,0016.92
2023-01-13 04:15:00,,0833.4,5.01,0.00,23.1,21.0,00.0,32.2,24.7,14.6,-000.0,0017.93,0028.40,0016.94
2023-01-13 04:16:00,,0833.4,5.01,0.00,23.0,20.9,00.0,32.1,24.6,14.6,-000.0,0017.97,0028.18,0016.99
2023-01-13 04:17:00,,0833.4,5.00,0.00,23.0,20.8,00.0,32.1,24.5,14.7,-000.2,0017.96,0028.16,0017.00
2023-01-13 04:18:00,,0833.3,5.00,0.00,22.9,20.8,00.0,32.1,24.5,14.7,-000.1,0017.99,0029.04,0017.04
2023-01-13 04:19:00,,0833.4,5.00,0.00,22.9,20.9,00.0,32.0,24.5,14.7,-000.0,0018.04,0028.62,0017.08
2023-01-13 04:20:00,,0833.4,5.00,0.00,22.9,21.1,00.0,32.0,24.6,14.7,-000.1,0018.03,0028.43,0017.09
2023-01-13 04:21:00,,0833.4,5.00,0.00,22.9,21.2,00.0,32.0,24.6,14.6,-000.1,0018.11,0028.37,0017.13
2023-01-13 04:22:00,,0833.4,5.00,0.00,22.9,21.2,00.0,32.0,24.6,14.6,-000.1,0018.15,0028.33,0017.15
2023-01-13 04:23:00,,0833.3,4.99,0.00,22.9,21.2,00.0,31.9,24.6,14.6,-000.1,0018.14,0028.21,0017.15
2023-01-13 04:24:00,,0833.3,5.00,0.00,22.9,21.1,00.0,31.9,24.6,14.6,0000.1,0018.15,0027.73,0017.19
2023-01-13 04:25:00,,0833.3,4.99,0.00,22.9,21.1,00.0,31.9,24.5,14.6,0000.1,0018.12,0027.34,0017.21
2023-01-13 04:26:00,,0833.2,4.99,0.00,22.8,20.9,00.0,31.9,24.4,14.5,0000.2,0018.08,0027.30,0017.18
2023-01-13 04:27:00,,0833.1,5.00,0.00,22.8,20.7,00.0,31.9,24.3,14.6,0000.2,0018.03,0027.65,0017.11
2023-01-13 04:28:00,,0833.1,5.00,0.00,22.7,20.6,00.0,31.8,24.2,14.6,0000.2,0018.04,0027.42,0017.08
2023-01-13 04:29:00,,0833.1,5.01,0.00,22.6,20.4,00.0,31.8,24.1,14.7,0000.1,0018.03,0026.28,0017.06
2023-01-13 04:30:00,,0833.1,5.00,0.00,22.6,20.3,00.0,31.8,24.1,14.8,0000.1,0018.00,0026.19,0017.04
2023-01-13 04:31:00,,0833.1,5.01,0.00,22.5,20.2,00.0,31.7,24.0,14.9,0000.2,0018.06,0026.57,0017.08
2023-01-13 04:32:00,,0833.2,5.01,0.00,22.5,20.2,00.0,31.7,24.0,14.9,0000.2,0018.04,0026.75,0017.08
2023-01-13 04:33:00,,0833.1,4.99,0.00,22.4,20.2,00.0,31.7,24.0,15.0,0000.2,0018.07,0026.82,0017.13
2023-01-13 04:34:00,,0833.2,5.00,0.00,22.4,20.2,00.0,31.6,23.9,15.0,0000.3,0018.13,0026.91,0017.20
2023-01-13 04:35:00,,0833.2,5.00,0.00,22.4,20.2,00.0,31.6,23.9,15.0,0000.2,0018.17,0027.33,0017.23
2023-01-13 04:36:00,,0833.2,5.01,0.00,22.3,20.1,00.0,31.6,23.9,15.1,0000.0,0018.36,0027.56,0017.41
2023-01-13 04:37:00,,0833.3,5.00,0.00,22.3,20.1,00.0,31.5,23.8,15.1,-000.1,0018.52,0027.70,0017.56
2023-01-13 04:38:00,,0833.3,5.00,0.00,22.2,20.0,00.0,31.5,23.8,15.0,-000.1,0018.61,0027.65,0017.65
2023-01-13 04:39:00,,0833.4,4.99,0.00,22.2,20.1,00.0,31.4,23.8,14.9,0000.0,0018.58,0027.78,0017.66
2023-01-13 04:40:00,,0833.4,5.00,0.00,22.2,20.1,00.0,31.4,23.8,14.9,0000.0,0018.49,0027.67,0017.59
2023-01-13 04:41:00,,0833.4,5.01,0.00,22.2,20.1,00.0,31.4,23.9,15.0,0000.1,0018.56,0027.93,0017.57
2023-01-13 04:42:00,,0833.4,5.01,0.00,22.2,20.2,00.0,31.4,23.9,15.0,0000.1,0018.52,0028.37,0017.52
2023-01-13 04:43:00,,0833.4,5.01,0.00,22.2,20.2,00.0,31.3,23.9,15.0,0000.2,0018.47,0028.92,0017.45
2023-01-13 04:44:00,,0833.4,5.01,0.00,22.2,20.2,00.0,31.3,23.9,15.0,0000.3,0018.51,0029.31,0017.42
2023-01-13 04:45:00,,0833.4,5.00,0.00,22.2,20.2,00.0,31.3,23.8,15.1,0000.2,0018.52,0029.85,0017.38
2023-01-13 04:46:00,,0833.4,4.99,0.00,22.2,20.2,00.0,31.3,23.8,15.1,0000.2,0018.54,0029.80,0017.37
2023-01-13 04:47:00,,0833.4,4.99,0.00,22.2,20.2,00.0,31.2,23.8,15.2,0000.3,0018.42,0030.04,0017.23
2023-01-13 04:48:00,,0833.4,4.99,0.00,22.2,20.2,00.0,31.2,23.8,15.2,0000.3,0018.44,0030.44,0017.18
2023-01-13 04:49:00,,0833.4,5.00,0.00,22.2,20.3,00.0,31.2,23.9,15.2,0000.2,0018.48,0030.76,0017.19
2023-01-13 04:50:00,,0833.5,5.01,0.00,22.2,20.5,00.0,31.2,23.9,15.2,0000.1,0018.55,0031.10,0017.22
2023-01-13 04:51:00,,0833.5,5.01,0.00,22.2,20.6,00.0,31.2,24.0,15.2,0000.0,0018.62,0031.50,0017.25
2023-01-13 04:52:00,,0833.5,5.00,0.00,22.2,20.8,00.0,31.2,24.0,15.1,-000.0,0018.54,0031.24,0017.22
2023-01-13 04:53:00,,0833.5,5.00,0.00,22.3,20.9,00.0,31.2,24.1,15.1,-000.0,0018.54,0030.66,0017.23
2023-01-13 04:54:00,,0833.5,4.99,0.00,22.3,21.0,00.0,31.2,24.1,15.0,-000.1,0018.56,0029.95,0017.27
2023-01-13 04:55:00,,0833.4,5.00,0.00,22.3,21.1,00.0,31.2,24.2,15.0,-000.1,0018.52,0029.83,0017.27
2023-01-13 04:56:00,,0833.5,5.00,0.00,22.4,21.1,00.0,31.2,24.2,14.9,-000.1,0018.54,0029.86,0017.30
2023-01-13 04:57:00,,0833.5,5.00,0.00,22.4,21.2,00.0,31.2,24.2,14.9,-000.0,0018.53,0030.69,0017.30
2023-01-13 04:58:00,,0833.4,5.00,0.00,22.4,21.2,00.0,31.2,24.3,14.8,0000.1,0018.52,0030.43,0017.31
2023-01-13 04:59:00,,0833.4,5.00,0.00,22.4,21.2,00.0,31.2,24.3,14.8,0000.1,0018.47,0030.16,0017.31
